Location: Tel Aviv
(32.0670°N, 34.7670°E)
Time: 01:39:26
(UTC+02:00)

Envisat - Pass Details

Date: 29 November 2021
Orbit: 764 x 766 km, 98.2° (Epoch: 26 January)

Event Time Altitude Azimuth Distance (km) Brightness Sun altitude
Rises 04:01:33 0° 22° (NNE) 3,235 6.4 -29.3°
Reaches altitude 10° 04:04:01 10° 31° (NNE) 2,305 5.7 -28.7°
Maximum altitude 04:08:43 37° 98° (E) 1,166 4.4 -27.8°
Drops below altitude 10° 04:13:23 10° 166° (SSE) 2,292 5.7 -26.8°
Sets 04:15:50 0° 174° (S) 3,214 6.4 -26.3°
